Погода в Ямище

Россия / Псковская область     56°08′48″N   31°16′40″E
темп.,
°C
ветер,
м/с
пор.,
м/с
влажн.,
%
обл.,
%
осадки,
мм/ч
давл.,
гПа
погр.,
м
17 мая, пн
пн1700:00+12вюв229431 0.0 101231
03:00+11вюв2596100 0.0 101285
06:00+12вюв3894100 0.0 1012207
09:00+18юв486997 0.0 1011571
12:00+21юв4755100 0.0 10101307
15:00+23вюв5647100 0.0 10081659
18:00+20в41175100 0.8 1006549
21:00+18вюв4149023 3.1 1004517
18 мая, вт
вт1800:00+16вюв414915 0.0 1003498
03:00+16вюв41292100 0.0 1003440
06:00+15юв51393100 0.0 1002561
09:00+18ююв51286100 0.0 1003796
12:00+20ююв5127777 0.2 10041308
15:00+22ю61063100 0.4 10041611
18:00+18ююв3991100 1.9 1004749
21:00+15юв2796100 2.9 1004162
19 мая, ср
ср1900:00+14вюв2497100 0.6 1003130
03:00+13юв2499100 0.6 1004110
06:00+14юв269998 0.5 1004281
09:00+16ююв478891 0.6 1004633
12:00+20ю3563100 0.1 10041139
15:00+19вюв347698 1.5 1004684
18:00+18вюв2483100 1.3 1003334
21:00+15ююв249598 3.9 100378
20 мая, чт
чт2000:00+13юв399898 0.1 1004255
03:00+13юв3898100 0.1 1004243
06:00+13ююв399796 0.0 1004353
09:00+15ю3684100 0.0 1004585
12:00+18ю246089 0.0 10031377
15:00+18ююз3466100 1.1 10021174
18:00+15юз368759 2.5 1002721
21:00+11зюз4896100 3.4 1003579
21 мая, пт
пт2100:00+9юз41098100 3.1 1005606
03:00+9зюз61196100 8.9 1008835
06:00+8зюз5129411 0.3 1011621
09:00+11зюз587252 0.3 1013707
12:00+16зюз4645100 0.0 10141557
15:00+17юз3642100 0.0 10132223
18:00+13ююз3771100 0.3 1013231
21:00+10ююз2692100 0.9 1014199